When you browse on this site, cookies collect data to enhance your experience and personalize the content and advertising you see.
Visit our Privacy Policy to learn more. By continuing to use the site, you agree to this use of cookies and data.
  • In Sweden
  • List of Countries
  • For 7 days
  • Water Temperature
  • Satellite Maps
  • Weather Map
  • Weather Widgets
  • user-avatar
    Login

    Hourly Weather Oszkowice

    Today, 22 July, Monday

    Time Temperature Precipitation Wind Pressure Humidity
    00:00 +18°C° 0 mm 3 mps 755 mmHg 87%
    01:00 +17°C° 0 mm 3 mps 755 mmHg 91%
    02:00 +17°C° 0 mm 3 mps 756 mmHg 92%
    03:00 +16°C° 0 mm 2 mps 756 mmHg 92%
    04:00 +16°C° 0 mm 2 mps 756 mmHg 92%
    05:00 +17°C° 0 mm 2 mps 756 mmHg 86%
    06:00 +19°C° 0 mm 2 mps 756 mmHg 81%
    07:00 +20°C° 0 mm 3 mps 757 mmHg 75%
    08:00 +21°C° 0 mm 3 mps 757 mmHg 70%
    09:00 +22°C° 0 mm 4 mps 757 mmHg 66%
    10:00 +23°C° 0 mm 5 mps 757 mmHg 62%
    11:00 +25°C° 0 mm 5 mps 757 mmHg 59%
    12:00 +25°C° 0 mm 5 mps 757 mmHg 56%
    13:00 +26°C° 0 mm 6 mps 756 mmHg 53%
    14:00 +24°C° 0 mm 6 mps 756 mmHg 54%
    15:00 +24°C° 0 mm 6 mps 756 mmHg 54%
    16:00 +24°C° 0 mm 6 mps 756 mmHg 55%
    17:00 +23°C° 0 mm 5 mps 756 mmHg 58%
    18:00 +22°C° 0 mm 4 mps 756 mmHg 62%
    19:00 +21°C° 0 mm 3 mps 756 mmHg 65%
    20:00 +20°C° 0 mm 3 mps 756 mmHg 67%
    21:00 +19°C° 0 mm 3 mps 756 mmHg 68%
    22:00 +18°C° 0 mm 3 mps 756 mmHg 69%
    23:00 +18°C° 0 mm 3 mps 756 mmHg 70%

    Tomorrow, 23 July, Tuesday

    Time Temperature Precipitation Wind Pressure Humidity
    00:00 +18°C° 0 mm 3 mps 756 mmHg 71%
    01:00 +17°C° 0 mm 2 mps 756 mmHg 72%
    02:00 +17°C° 0 mm 2 mps 756 mmHg 73%
    03:00 +17°C° 0 mm 2 mps 756 mmHg 73%
    04:00 +17°C° 0 mm 2 mps 756 mmHg 74%
    05:00 +17°C° 0 mm 2 mps 756 mmHg 75%
    06:00 +17°C° 0 mm 2 mps 756 mmHg 76%
    07:00 +17°C° 0 mm 2 mps 756 mmHg 77%
    08:00 +17°C° 0 mm 2 mps 756 mmHg 78%
    09:00 +17°C° 0 mm 2 mps 756 mmHg 79%
    10:00 +17°C° 0 mm 2 mps 756 mmHg 80%
    11:00 +17°C° 0 mm 2 mps 756 mmHg 80%
    12:00 +17°C° 0 mm 2 mps 756 mmHg 80%
    13:00 +17°C° 0 mm 2 mps 756 mmHg 81%
    14:00 +18°C° 0 mm 2 mps 755 mmHg 81%
    15:00 +18°C° 0 mm 2 mps 755 mmHg 80%
    16:00 +19°C° 0 mm 2 mps 755 mmHg 80%
    17:00 +19°C° 0 mm 2 mps 755 mmHg 81%
    18:00 +20°C° 0 mm 1 mps 755 mmHg 82%
    19:00 +18°C° 0 mm 0 mps 754 mmHg 83%
    20:00 +20°C° 0 mm 1 mps 755 mmHg 84%
    21:00 +20°C° 0 mm 1 mps 755 mmHg 85%
    22:00 +19°C° 0 mm 1 mps 755 mmHg 86%
    23:00 +19°C° 0 mm 1 mps 755 mmHg 88%

    Day after tomorrow, 24 July, Wednesday

    Time Temperature Precipitation Wind Pressure Humidity
    00:00 +19°C° 0 mm 1 mps 755 mmHg 89%
    01:00 +18°C° 0 mm 2 mps 755 mmHg 91%
    02:00 +18°C° 0 mm 2 mps 755 mmHg 91%
    03:00 +19°C° 0 mm 1 mps 754 mmHg 90%
    04:00 +19°C° 0 mm 1 mps 754 mmHg 90%
    05:00 +19°C° 0 mm 2 mps 754 mmHg 87%
    06:00 +20°C° 0 mm 2 mps 754 mmHg 84%
    07:00 +21°C° 0 mm 2 mps 755 mmHg 81%
    08:00 +23°C° 0.1 mm 2 mps 755 mmHg 77%
    09:00 +24°C° 0.1 mm 2 mps 755 mmHg 72%
    10:00 +24°C° 0.1 mm 2 mps 755 mmHg 68%
    11:00 +25°C° 0.1 mm 2 mps 754 mmHg 65%
    12:00 +26°C° 0.1 mm 2 mps 754 mmHg 62%
    13:00 +26°C° 0.1 mm 2 mps 754 mmHg 59%
    14:00 +27°C° 0 mm 2 mps 754 mmHg 57%
    15:00 +27°C° 0 mm 2 mps 754 mmHg 55%
    16:00 +28°C° 0 mm 2 mps 754 mmHg 53%
    17:00 +27°C° 0 mm 2 mps 754 mmHg 58%
    18:00 +26°C° 0 mm 1 mps 754 mmHg 63%
    19:00 +25°C° 0 mm 1 mps 754 mmHg 69%
    20:00 +23°C° 0 mm 1 mps 754 mmHg 72%
    21:00 +20°C° 0 mm 0 mps 754 mmHg 76%
    22:00 +19°C° 0 mm 0 mps 755 mmHg 79%
    23:00 +19°C° 0 mm 0 mps 755 mmHg 81%

    25 July, Thursday

    Time Temperature Precipitation Wind Pressure Humidity
    00:00 +18°C° 0 mm 0 mps 755 mmHg 82%
    01:00 +18°C° 0 mm 0 mps 755 mmHg 84%
    02:00 +18°C° 0 mm 0 mps 755 mmHg 84%
    03:00 +18°C° 0 mm 0 mps 755 mmHg 85%
    04:00 +18°C° 0 mm 0 mps 755 mmHg 86%
    05:00 +21°C° 0 mm 1 mps 755 mmHg 82%
    06:00 +22°C° 0 mm 1 mps 756 mmHg 78%
    07:00 +24°C° 0 mm 1 mps 756 mmHg 74%
    08:00 +25°C° 0 mm 1 mps 756 mmHg 69%
    09:00 +26°C° 0 mm 2 mps 756 mmHg 64%
    10:00 +27°C° 0 mm 2 mps 756 mmHg 59%
    11:00 +28°C° 0.1 mm 2 mps 756 mmHg 56%
    12:00 +28°C° 0.1 mm 2 mps 756 mmHg 54%
    13:00 +29°C° 0.1 mm 2 mps 755 mmHg 51%
    14:00 +29°C° 0.1 mm 2 mps 755 mmHg 53%
    15:00 +28°C° 0.1 mm 2 mps 755 mmHg 56%
    16:00 +28°C° 0.1 mm 3 mps 755 mmHg 58%
    17:00 +27°C° 0 mm 3 mps 755 mmHg 61%
    18:00 +26°C° 0 mm 2 mps 755 mmHg 65%
    19:00 +25°C° 0 mm 2 mps 755 mmHg 68%
    20:00 +24°C° 0 mm 2 mps 755 mmHg 70%
    21:00 +23°C° 0 mm 2 mps 755 mmHg 72%
    22:00 +21°C° 0 mm 2 mps 756 mmHg 73%
    23:00 +20°C° 0 mm 2 mps 756 mmHg 76%

    26 July, Friday

    Time Temperature Precipitation Wind Pressure Humidity
    00:00 +20°C° 0 mm 2 mps 756 mmHg 78%
    01:00 +19°C° 0 mm 2 mps 756 mmHg 80%
    02:00 +19°C° 0 mm 2 mps 756 mmHg 83%
    03:00 +18°C° 0 mm 2 mps 755 mmHg 86%
    04:00 +18°C° 0 mm 2 mps 755 mmHg 89%
    05:00 +19°C° 0 mm 3 mps 755 mmHg 84%
    06:00 +21°C° 0 mm 3 mps 755 mmHg 78%
    07:00 +22°C° 0 mm 3 mps 755 mmHg 73%
    08:00 +25°C° 0 mm 4 mps 755 mmHg 67%
    09:00 +26°C° 0 mm 4 mps 755 mmHg 61%
    10:00 +28°C° 0 mm 5 mps 755 mmHg 55%
    11:00 +28°C° 0 mm 5 mps 755 mmHg 53%
    12:00 +29°C° 0 mm 5 mps 754 mmHg 51%
    13:00 +30°C° 0 mm 5 mps 754 mmHg 49%
    14:00 +30°C° 0 mm 5 mps 754 mmHg 49%
    15:00 +30°C° 0 mm 5 mps 753 mmHg 49%
    16:00 +30°C° 0 mm 5 mps 753 mmHg 49%
    17:00 +29°C° 0 mm 4 mps 753 mmHg 55%
    18:00 +28°C° 0 mm 4 mps 753 mmHg 60%
    19:00 +26°C° 0 mm 3 mps 752 mmHg 66%
    20:00 +25°C° 0 mm 3 mps 752 mmHg 69%
    21:00 +24°C° 0 mm 3 mps 752 mmHg 71%
    22:00 +22°C° 0 mm 3 mps 753 mmHg 74%
    23:00 +22°C° 0 mm 3 mps 752 mmHg 76%

    27 July, Saturday

    Time Temperature Precipitation Wind Pressure Humidity
    00:00 +21°C° 0 mm 3 mps 752 mmHg 78%
    01:00 +20°C° 0 mm 3 mps 752 mmHg 80%
    02:00 +20°C° 0 mm 3 mps 752 mmHg 82%
    03:00 +19°C° 0 mm 3 mps 752 mmHg 83%
    04:00 +19°C° 0 mm 3 mps 751 mmHg 85%
    05:00 +20°C° 0 mm 4 mps 751 mmHg 80%
    06:00 +22°C° 0 mm 4 mps 751 mmHg 75%
    07:00 +23°C° 0 mm 5 mps 751 mmHg 70%
    08:00 +26°C° 0 mm 5 mps 751 mmHg 64%
    09:00 +27°C° 0 mm 5 mps 751 mmHg 58%
    10:00 +29°C° 0 mm 6 mps 751 mmHg 53%
    11:00 +30°C° 0 mm 6 mps 750 mmHg 50%
    12:00 +30°C° 0 mm 6 mps 750 mmHg 48%
    13:00 +32°C° 0 mm 6 mps 750 mmHg 46%
    14:00 +32°C° 0 mm 6 mps 749 mmHg 46%
    15:00 +32°C° 0 mm 6 mps 749 mmHg 46%
    16:00 +32°C° 0 mm 6 mps 748 mmHg 46%
    17:00 +30°C° 0 mm 5 mps 748 mmHg 52%
    18:00 +28°C° 0 mm 5 mps 748 mmHg 57%
    19:00 +27°C° 0 mm 4 mps 748 mmHg 63%
    20:00 +26°C° 0 mm 4 mps 748 mmHg 65%
    21:00 +25°C° 0 mm 5 mps 748 mmHg 66%
    22:00 +23°C° 0 mm 5 mps 748 mmHg 67%
    23:00 +22°C° 0 mm 4 mps 748 mmHg 71%
    Show more